• In Hungary
  • List of Countries
  • For 7 days
  • Water Temperature
  • Satellite Maps
  • Weather Map
  • News
  • Weather Widgets
  • user-avatar
    Login

    Hourly Weather Radwanki

    Today, 24 November, Friday

    Time Temperature Precipitation Wind Pressure Humidity
    00:00 +6°C° 0 mm 4 mps 750 mmHg 81%
    01:00 +7°C° 0 mm 3 mps 751 mmHg 84%
    02:00 +5°C° 0 mm 3 mps 751 mmHg 86%
    03:00 +5°C° 0 mm 3 mps 751 mmHg 88%
    04:00 +5°C° 0 mm 3 mps 751 mmHg 90%
    05:00 +5°C° 0 mm 3 mps 751 mmHg 91%
    06:00 +5°C° 0 mm 3 mps 751 mmHg 92%
    07:00 +5°C° 0 mm 3 mps 751 mmHg 93%
    08:00 +5°C° 0 mm 3 mps 751 mmHg 91%
    09:00 +6°C° 0 mm 4 mps 751 mmHg 89%
    10:00 +7°C° 0 mm 4 mps 751 mmHg 86%
    11:00 +8°C° 0 mm 5 mps 750 mmHg 83%
    12:00 +8°C° 0 mm 5 mps 750 mmHg 79%
    13:00 +9°C° 0 mm 6 mps 749 mmHg 75%
    14:00 +9°C° 0 mm 6 mps 749 mmHg 76%
    15:00 +9°C° 0 mm 5 mps 749 mmHg 77%
    16:00 +9°C° 0 mm 5 mps 749 mmHg 78%
    17:00 +9°C° 0.1 mm 5 mps 749 mmHg 79%
    18:00 +9°C° 0.1 mm 5 mps 749 mmHg 81%
    19:00 +9°C° 0.1 mm 5 mps 749 mmHg 82%
    20:00 +9°C° 0.1 mm 5 mps 749 mmHg 82%
    21:00 +9°C° 0.1 mm 5 mps 750 mmHg 82%
    22:00 +8°C° 0.1 mm 4 mps 750 mmHg 83%
    23:00 +8°C° 0 mm 4 mps 751 mmHg 85%

    Tomorrow, 25 November, Saturday

    Time Temperature Precipitation Wind Pressure Humidity
    00:00 +8°C° 0 mm 3 mps 751 mmHg 87%
    01:00 +7°C° 0 mm 2 mps 751 mmHg 89%
    02:00 +7°C° 0 mm 2 mps 751 mmHg 89%
    03:00 +7°C° 0 mm 1 mps 751 mmHg 89%
    04:00 +7°C° 0 mm 1 mps 751 mmHg 89%
    05:00 +7°C° 0.2 mm 1 mps 751 mmHg 89%
    06:00 +7°C° 0.2 mm 1 mps 751 mmHg 89%
    07:00 +6°C° 0.2 mm 2 mps 750 mmHg 90%
    08:00 +6°C° 0.5 mm 2 mps 750 mmHg 90%
    09:00 +5°C° 0.5 mm 3 mps 749 mmHg 90%
    10:00 +5°C° 0.5 mm 4 mps 748 mmHg 90%
    11:00 +6°C° 0.4 mm 4 mps 748 mmHg 87%
    12:00 +7°C° 0.4 mm 4 mps 747 mmHg 84%
    13:00 +8°C° 0.4 mm 4 mps 746 mmHg 81%
    14:00 +7°C° 0.3 mm 4 mps 746 mmHg 82%
    15:00 +8°C° 0.3 mm 3 mps 745 mmHg 83%
    16:00 +8°C° 0.3 mm 3 mps 745 mmHg 84%
    17:00 +6°C° 0.6 mm 4 mps 745 mmHg 86%
    18:00 +6°C° 0.6 mm 4 mps 745 mmHg 87%
    19:00 +5°C° 0.6 mm 5 mps 745 mmHg 88%
    20:00 +5°C° 0.3 mm 5 mps 746 mmHg 86%
    21:00 +4°C° 0.3 mm 6 mps 747 mmHg 83%
    22:00 +3°C° 0.3 mm 7 mps 748 mmHg 81%
    23:00 +3°C° 0 mm 6 mps 749 mmHg 80%

    Day after tomorrow, 26 November, Sunday

    Time Temperature Precipitation Wind Pressure Humidity
    00:00 +3°C° 0 mm 6 mps 749 mmHg 79%
    01:00 +2°C° 0 mm 5 mps 750 mmHg 78%
    02:00 +2°C° 0 mm 5 mps 751 mmHg 81%
    03:00 +1°C° 0 mm 4 mps 752 mmHg 83%
    04:00 +1°C° 0 mm 4 mps 752 mmHg 86%
    05:00 0°C° 0 mm 4 mps 753 mmHg 88%
    06:00 0°C° 0 mm 4 mps 753 mmHg 90%
    07:00 -1°C° 0 mm 4 mps 754 mmHg 91%
    08:00 0°C° 0 mm 4 mps 754 mmHg 89%
    09:00 0°C° 0 mm 4 mps 754 mmHg 86%
    10:00 0°C° 0 mm 4 mps 755 mmHg 84%
    11:00 +1°C° 0 mm 4 mps 755 mmHg 79%
    12:00 +2°C° 0 mm 5 mps 755 mmHg 75%
    13:00 +2°C° 0 mm 5 mps 755 mmHg 71%
    14:00 +3°C° 0 mm 4 mps 755 mmHg 74%
    15:00 +1°C° 0 mm 4 mps 755 mmHg 77%
    16:00 +1°C° 0 mm 4 mps 756 mmHg 80%
    17:00 0°C° 0 mm 4 mps 756 mmHg 81%
    18:00 0°C° 0 mm 4 mps 756 mmHg 83%
    19:00 0°C° 0 mm 4 mps 756 mmHg 84%
    20:00 0°C° 0 mm 4 mps 756 mmHg 84%
    21:00 0°C° 0 mm 4 mps 756 mmHg 85%
    22:00 0°C° 0 mm 4 mps 756 mmHg 85%
    23:00 0°C° 0 mm 4 mps 756 mmHg 85%

    27 November, Monday

    Time Temperature Precipitation Wind Pressure Humidity
    00:00 -1°C° 0 mm 4 mps 756 mmHg 85%
    01:00 -1°C° 0 mm 5 mps 756 mmHg 86%
    02:00 -1°C° 0 mm 5 mps 756 mmHg 86%
    03:00 -1°C° 0 mm 4 mps 756 mmHg 87%
    04:00 -1°C° 0 mm 4 mps 756 mmHg 87%
    05:00 -1°C° 0 mm 4 mps 756 mmHg 87%
    06:00 -1°C° 0 mm 5 mps 756 mmHg 87%
    07:00 -2°C° 0 mm 5 mps 756 mmHg 88%
    08:00 -1°C° 0 mm 5 mps 757 mmHg 86%
    09:00 -1°C° 0 mm 5 mps 757 mmHg 84%
    10:00 0°C° 0 mm 5 mps 757 mmHg 82%
    11:00 0°C° 0 mm 5 mps 756 mmHg 81%
    12:00 0°C° 0 mm 5 mps 756 mmHg 79%
    13:00 +1°C° 0 mm 5 mps 756 mmHg 78%
    14:00 +1°C° 0 mm 5 mps 756 mmHg 79%
    15:00 +1°C° 0 mm 5 mps 756 mmHg 80%
    16:00 +1°C° 0 mm 4 mps 756 mmHg 81%
    17:00 0°C° 0 mm 4 mps 756 mmHg 83%
    18:00 0°C° 0 mm 4 mps 756 mmHg 84%
    19:00 0°C° 0 mm 4 mps 756 mmHg 85%
    20:00 +1°C° 0 mm 3 mps 756 mmHg 87%
    21:00 0°C° 0 mm 3 mps 756 mmHg 89%
    22:00 -1°C° 0 mm 3 mps 756 mmHg 92%
    23:00 -1°C° 0 mm 3 mps 756 mmHg 92%

    28 November, Tuesday

    Time Temperature Precipitation Wind Pressure Humidity
    00:00 -1°C° 0 mm 3 mps 756 mmHg 92%
    01:00 -1°C° 0 mm 3 mps 755 mmHg 92%
    02:00 -1°C° 0 mm 3 mps 755 mmHg 89%
    03:00 -1°C° 0 mm 3 mps 755 mmHg 87%
    04:00 -2°C° 0 mm 4 mps 754 mmHg 84%
    05:00 -2°C° 0 mm 4 mps 754 mmHg 83%
    06:00 -1°C° 0 mm 4 mps 754 mmHg 81%
    07:00 -1°C° 0 mm 5 mps 753 mmHg 79%
    08:00 0°C° 0.2 mm 5 mps 753 mmHg 78%
    09:00 0°C° 0.2 mm 5 mps 753 mmHg 78%
    10:00 0°C° 0.2 mm 5 mps 753 mmHg 77%
    11:00 0°C° 0.2 mm 5 mps 752 mmHg 77%
    12:00 +1°C° 0.2 mm 5 mps 752 mmHg 77%
    13:00 +1°C° 0.2 mm 5 mps 752 mmHg 77%
    14:00 +1°C° 0.2 mm 5 mps 751 mmHg 78%
    15:00 +1°C° 0.2 mm 4 mps 751 mmHg 79%
    16:00 +1°C° 0.2 mm 4 mps 751 mmHg 80%
    17:00 +1°C° 0.3 mm 4 mps 751 mmHg 80%
    18:00 +1°C° 0.3 mm 4 mps 751 mmHg 80%
    19:00 +1°C° 0.3 mm 4 mps 751 mmHg 81%
    20:00 0°C° 0.3 mm 4 mps 750 mmHg 81%
    21:00 0°C° 0.3 mm 4 mps 750 mmHg 82%
    22:00 0°C° 0.3 mm 4 mps 750 mmHg 82%
    23:00 0°C° 0 mm 4 mps 750 mmHg 82%

    29 November, Wednesday

    Time Temperature Precipitation Wind Pressure Humidity
    00:00 0°C° 0 mm 4 mps 750 mmHg 82%
    01:00 -1°C° 0 mm 4 mps 749 mmHg 83%
    02:00 -1°C° 0.1 mm 4 mps 749 mmHg 83%
    03:00 -1°C° 0.1 mm 4 mps 749 mmHg 83%
    04:00 -1°C° 0.1 mm 4 mps 749 mmHg 83%
    05:00 -1°C° 0.1 mm 4 mps 749 mmHg 83%
    06:00 -1°C° 0.1 mm 4 mps 749 mmHg 84%
    07:00 -1°C° 0.1 mm 4 mps 749 mmHg 84%
    08:00 -1°C° 0 mm 4 mps 749 mmHg 83%
    09:00 -1°C° 0 mm 4 mps 749 mmHg 81%
    10:00 0°C° 0 mm 4 mps 749 mmHg 80%
    11:00 0°C° 0 mm 4 mps 748 mmHg 78%
    12:00 0°C° 0 mm 4 mps 748 mmHg 76%
    13:00 +1°C° 0 mm 4 mps 748 mmHg 74%
    14:00 0°C° 0 mm 4 mps 748 mmHg 76%
    15:00 +1°C° 0 mm 3 mps 748 mmHg 77%
    16:00 0°C° 0 mm 3 mps 747 mmHg 78%
    17:00 0°C° 0 mm 3 mps 747 mmHg 78%
    18:00 0°C° 0 mm 3 mps 747 mmHg 78%
    19:00 -1°C° 0 mm 3 mps 747 mmHg 78%
    20:00 -1°C° 0 mm 3 mps 747 mmHg 79%
    21:00 -1°C° 0 mm 3 mps 747 mmHg 79%
    22:00 -1°C° 0 mm 3 mps 747 mmHg 80%
    23:00 -1°C° 0 mm 3 mps 746 mmHg 82%
    Show more